Погода в Яшкуле

Погода в Яшкуле : погода сейчас, прогноз погоды и архив. Всё, что Вы хотите узнать о погоде в Яшкуле!

Хотите узнать прогноз погоды в Яшкуле? Тогда Вам сюда: Погода в Яшкуле

Поиск расширенной информации на нашем сайте:

Другие новости

Новости СМИ2

Главная страница сайта

Новости сайта

03.07.2017

Напоминаем, что на нашем специализированном сайте Метеоцентр.Азия вы можете получить высокодетализированные автоматические прогнозы погоды по пунктам России, СНГ и мира в авиационном формате (включающие направление и скорость ветра, видимость, явления погоды, количество и форму облачности, нижнюю и верхнюю границу облачности).

Рекомендуем: Одн-2003 - противогололедные материалы.

Погода в Яшкуле - сегодня

Время (UTC), дата Ветер
(°,м/с) 
Видим.   Явления Облачность Т
(°С)
Тd
(°С)
f(%) Тe
(°С)
Pmin
(гПа)
dP
(гПа)
Po
(мм)
O2
(г/м3)
Тmin Tmax R s Состояние
почвы
12 17.06.18 030 (СВ) 5{11}  20000 м    3/0 верхняя 
[Ci fib]
+29.8 -4.4 11 +30  1009.5  -1.3  758  276           
15 17.06.18 050 (СВ) 20000 м    9/0 средняя, верхняя 
[Ac trans|Ci fib]
+29.2 -6.5 9 +29  1009.2  -0.3  758  276           
18 17.06.18 050 (СВ) 20000 м    8/0 средняя 
[Ac und]
+24.5 -5.6 13 +25  1010.6  1.4  759  281           
21 17.06.18 170 (Ю) 20000 м    ясно 
+20.3 +2.5 31 +20  1010.6  759  284           
00 18.06.18 040 (СВ) 20000 м    ясно 
+17.1 +0.7 33 +18  1010.5  0.1  758  288           
03 18.06.18 050 (СВ) 20000 м    ясно 
+18.8 -0.8 27 +19  1010.6  0.1  759  286  +15.5         
06 18.06.18 100 (В) 20000 м    8/0 верхняя 
[Ci fib]
+27.8 -1.4 15 +28  1010.5  0.1  758  278           
09 18.06.18 080 (В) 20000 м    8/0 верхняя 
[Ci fib]
+30 -4.1 11 +30  1009.9  -0.6  758  276           
12 18.06.18 180 (Ю) 20000 м    8/0 средняя, верхняя 
[Ac trans|Ci fib]
+30.3 -4.2 10 +30  1009.1  -0.8  757  275           
15 18.06.18 090 (В) 20000 м    6/0 верхняя 
[Ci fib]
+30.9 -3.9 10 +31  1008.6  -0.5  757  274    +31.8       
18 18.06.18 180 (Ю) 20000 м    6/0 средняя, верхняя 
[Ac trans|Ci fib]
+24.6 +3.8 26 +25  1010.2  1.6  758  280           
21 18.06.18 200 (Ю) 20000 м    ясно 
+19.9 +5.6 39 +21  1010.6  0.4  759  284           
00 19.06.18 230 (ЮЗ) 20000 м    ясно 
+19 +4.3 38 +20  1010.7  0.2  759  285           
03 19.06.18 300 (СЗ) 20000 м    ясно 
+19.9 +3.6 34 +21  1011.6  0.9  759  285  +17.4        сухая 
06 19.06.18 060 (СВ) 20000 м    ясно 
+29.8 -2 13 +30  1011.8  0.2  759  276           
09 19.06.18 060 (СВ) 20000 м    ясно 
+31.8 -1.8 11 +32  1011.5  -0.3  759  274           
12 19.06.18 070 (В) 20000 м    ясно 
+33 -2.1 10 +33  1010.7  -0.8  759  273           
15 19.06.18 060 (СВ) 20000 м    3/0 верхняя 
[Ci sp]
+32.6 -2.5 10 +33  1010.2  -0.5  758  273    +34.1       
18 19.06.18 050 (СВ) 20000 м    ясно 
+27.3 -2.7 14 +27  1011.1  0.9  759  278           
21 19.06.18 130 (ЮВ) 20000 м    ясно 
+21.6 +0.8 25 +22  1011.3  0.2  759  283           
00 20.06.18 150 (ЮВ) 20000 м    ясно 
+17.7 +1.7 34 +19  1011.4  0.1  759  287           
03 20.06.18 290 (З) 20000 м    ясно 
+19.7 +1.7 30 +21  1012.4  760  285  +15.9        сухая 
06 20.06.18 010 (С) 20000 м    ясно 
+31.3 +0.4 14 +31  1012.5  0.1  760  275           
09 20.06.18 330 (СЗ) 20000 м    6/6 1000 м 
[Cu hum]
+34.1 -0.3 11 +34  1012.3  -0.3  760  272           
12 20.06.18 320 (СЗ) 20000 м    8/6 1000 м средняя 
[Cu hum|Ac trans]
+35.3 -0.4 10 +35  1011.1  -1.2  759  271           
Время (UTC), дата Ветер
(°,м/с) 
Видим.   Явления Облачность Т
(°С)
Тd
(°С)
f(%) Тe
(°С)
Pmin
(гПа)
dP
(гПа)
Po
(мм)
O2
(г/м3)
Тmin Tmax R s Состояние
почвы

Для получения пояснительной информации подведите курсор к названию столбца.

ПОГОДА в Яшкуле - архив

Всё, что Вы хотите узнать о погоде в Яшкуле - удобно и подробно!

Выберите нужную дату (начиная с 1 января 2015* года) и нажмите кнопку "Найти".
Будут отображены архивные сводки погоды по пункту Яшкуль, начиная с указанной даты.


Отображать данные в формате CSV (для использования в таблицах Excel)


Внимание! Наш архив погоды предназначен исключительно для личного некоммерческого использования в познавательных целях. Если Вам необходимы официальные справки о состоянии погоды (для производственных, юридических, коммерческих и т.п. целей), обращайтесь в органы Росгидромета.

*Примечание: данная дата относится к архиву по метеостанциям СССР (Россия, СНГ, Балтия).
Архив по метеостанциям Зарубежной Европы и Азии (кроме Китая) хранится 10 дней, по другим регионам земного шара (Китай, Африка, Америка, Австралия, Океания) - 1 день.

Яшкуль - район местоположения метеостанции


Название, широта, долгота, высота метеостанции:
Яшкуль 46.2°ш. 45.3°д. -7 м над ур. моря [Российская Федерация]

Дополнительная информация

В oтличие oт бoльшинства пoгoдных сайтoв мы публикуем пoдрoбную метеoинфoрмацию в детальнoм прoфессиoнальнoм фoрмате.

Характеристики температуры и влажнoсти вoздуха измеряются на высoте 2 м в тени вдали oт зданий и деревьев.
Скoрoсть ветра измеряется на высoте 10 м (на урoвне рoста челoвека скoрoсть ветра ниже в 1.5-2 раза). Если метеoстанция нахoдится в гoрoде или в лесу, тo скoрoсть ветра занижена на 2-4 м/с пo сравнению с oткрытым местoм. Скoрoсть ветра над акватoриями крупных рек и oзёр, а также на вершинах хoлмoв на 2-5 м/с выше, чем в oбычных услoвиях.
Атмoсфернoе давление в разных тoчках местнoсти мoжет значительнo oтличаться oт давления на метеoстанции, в зависимoсти oт услoвий рельефа (при пoдъёме на 10 м давление пoнижается примернo на 1 мм рт.ст.).